OSCAR 7 (AO-7) 1 07530U 74089B 26071.97911914 -.00000024 00000+0 14250-3 0 9991 2 07530 101.9967 84.2044 0011950 315.7513 71.8532 12.53696392348460 PHASE 3B (AO-10) 1 14129U 83058B 26071.73249050 .00000034 00000+0 00000+0 0 9992 2 14129 25.9222 235.7459 6045624 88.9408 335.3649 2.05870596293504 UOSAT 2 (UO-11) 1 14781U 84021B 26071.82885626 .00001772 00000+0 18702-3 0 9994 2 14781 97.7946 38.5566 0008618 134.6539 225.5383 14.90518657242778 LUSAT (LO-19) 1 20442U 90005G 26071.62112445 .00000192 00000+0 85151-4 0 9992 2 20442 98.8935 90.7312 0012457 126.4748 233.7585 14.34089427888558 EYESAT A (AO-27) 1 22825U 93061C 26071.71380983 .00000133 00000+0 67474-4 0 9991 2 22825 98.6976 139.1260 0008808 30.7871 329.3826 14.30914229693206 ITAMSAT (IO-26) 1 22826U 93061D 26071.72187373 .00000142 00000+0 70413-4 0 9998 2 22826 98.6924 139.0420 0009024 14.5609 345.5832 14.31338357693511 RADIO ROSTO (RS15) 1 23439U 94085A 26071.62226791 -.00000043 00000+0 -20523-4 0 9992 2 23439 64.8133 99.3897 0152773 21.4786 339.2459 11.27583882285012 JAS-2 (FO-29) 1 24278U 96046B 26071.60397799 .00000008 00000+0 45667-4 0 9993 2 24278 98.5377 293.6293 0349702 347.2088 12.0349 13.53268870460108 TECHSAT 1B (GO-32) 1 25397U 98043D 26071.54984197 .00000125 00000+0 73993-4 0 9995 2 25397 99.0029 61.8925 0002134 115.0247 245.1152 14.24407055437576 ISS (ZARYA) 1 25544U 98067A 26071.86901803 .00011348 00000+0 21655-3 0 9999 2 25544 51.6324 56.6367 0007923 186.1410 173.9482 15.48614629556824 PCSAT (NO-44) 1 26931U 01043C 26071.63164662 .00000164 00000+0 92253-4 0 9994 2 26931 67.0501 134.0045 0007010 265.0968 94.9334 14.31913920276621 SAUDISAT 1C (SO-50) 1 27607U 02058C 26071.98961994 .00002161 00000+0 27188-3 0 9996 2 27607 64.5526 66.5662 0075292 280.0937 79.1681 14.82799323250194 CUTE-1 (CO-55) 1 27844U 03031E 26072.00612833 .00000419 00000+0 20026-3 0 9998 2 27844 98.6777 81.7637 0010730 103.8440 256.3934 14.24269354177988 CUBESAT XI-IV (CO-57) 1 27848U 03031J 26071.52490780 .00000374 00000+0 18335-3 0 9993 2 27848 98.6808 81.0787 0010480 121.3489 238.8716 14.23563697177626 MOZHAETS 4 (RS22) 1 27939U 03042A 26071.99974090 .00001473 00000+0 23618-3 0 9999 2 27939 98.3446 253.6528 0010623 208.9286 312.4893 14.73265528201381 CUBESAT XI-V 1 28895U 05043F 26071.97796088 .00002314 00000+0 37351-3 0 9995 2 28895 98.2837 225.6641 0014896 147.5945 212.6179 14.72336828 87591 CUTE-1.7+APD II (CO-65) 1 32785U 08021C 26071.96404985 .00007964 00000+0 51530-3 0 9999 2 32785 97.8202 51.4943 0009238 7.5944 352.5422 15.08423347970682 SEEDS II (CO-66) 1 32791U 08021J 26071.60401122 .00022620 00000+0 79898-3 0 9990 2 32791 97.7518 65.1556 0000957 346.4462 13.6752 15.29223276972516 YUBILEINY (RS30) 1 32953U 08025A 26072.00747316 .00000029 00000+0 13780-3 0 9994 2 32953 82.5007 55.2582 0019648 157.9973 202.1955 12.43176079807742 KKS-1 (KISEKI) 1 33499U 09002H 26071.90630760 .00002009 00000+0 25492-3 0 9991 2 33499 98.1184 352.8506 0006592 238.2615 121.7956 14.82843591921928 SWISSCUBE 1 35932U 09051B 26071.69360593 .00001487 00000+0 30458-3 0 9996 2 35932 98.4095 337.8898 0007285 144.0492 216.1200 14.62269136875058 BEESAT-1 1 35933U 09051C 26071.51691407 .00001249 00000+0 26159-3 0 9998 2 35933 98.4025 337.5444 0005513 154.7579 205.3891 14.61540877875062 ITUPSAT1 1 35935U 09051E 26071.69767748 .00001145 00000+0 24721-3 0 9999 2 35935 98.4111 337.0197 0007476 168.7108 191.4260 14.60275662874658 XIWANG-1 (HOPE-1) 1 36122U 09072B 26071.95295828 -.00000370 00000+0 -85267-3 0 9998 2 36122 100.3918 27.3695 0008105 92.4846 267.7195 13.16434677780348 O/OREOS (USA 219) 1 37224U 10062C 26071.74624663 .00002641 00000+0 25736-3 0 9999 2 37224 71.9709 298.7237 0016801 251.5335 108.4010 14.93298425102241 JUGNU 1 37839U 11058B 26071.61772689 .00000530 00000+0 13730-3 0 9991 2 37839 19.9596 175.1079 0018746 89.4771 54.5382 14.13742598745347 SRMSAT 1 37841U 11058D 26071.88014721 .00000480 00000+0 11685-3 0 9990 2 37841 19.9720 282.3949 0011726 224.2053 250.8798 14.11549135744193 STRAND-1 1 39090U 13009E 26071.97599184 .00000442 00000+0 16312-3 0 9997 2 39090 98.3892 254.5860 0009214 152.3731 207.7947 14.37098215683249 ZACUBE-1 (TSHEPISOSAT) 1 39417U 13066B 26071.46451722 .00004995 00000+0 39525-3 0 9990 2 39417 97.8162 33.3027 0042859 210.7358 149.1354 15.00356925666226 GOMX-1 1 39430U 13066Q 26071.95784951 .00002169 00000+0 33189-3 0 9993 2 39430 97.6571 278.4593 0130066 27.0842 333.7073 14.69113007655782 CUBEBUG-2 (LO-74) 1 39440U 13066AA 26071.84762697 .00006457 00000+0 60655-3 0 9997 2 39440 97.8805 20.5253 0058254 348.4702 11.5178 14.92998447662619 FUNCUBE-1 (AO-73) 1 39444U 13066AE 26071.29535176 .00008749 00000+0 56408-3 0 9997 2 39444 97.8189 40.8783 0037634 169.9501 190.2488 15.07963577665056 UWE-3 1 39446U 13066AG 26071.40481443 .00006038 00000+0 52829-3 0 9991 2 39446 97.8588 26.9469 0048200 282.7822 76.8015 14.96214975663105 UNISAT-6 1 40012U 14033C 26071.83469446 .00003988 00000+0 43578-3 0 9995 2 40012 97.7731 226.3510 0045849 27.6310 332.7329 14.87662802631835 DUCHIFAT-1 1 40021U 14033M 26071.66947214 .00061000 00000+0 10750-2 0 9994 2 40021 98.0637 118.4490 0005901 76.2665 283.9241 15.50204280640732 QB50P1 1 40025U 14033R 26072.00901450 .00011075 00000+0 56981-3 0 9993 2 40025 98.1009 76.5163 0008726 182.5595 177.5593 15.16598426638445 LILACSAT-2 1 40908U 15049K 26072.00530733 .00019413 00000+0 37060-3 0 9994 2 40908 97.4807 105.3453 0005912 230.1829 129.8901 15.48159742580853 FOX-1A (AO-85) 1 40967U 15058D 26071.74619670 .00004410 00000+0 40081-3 0 9995 2 40967 64.7750 218.5519 0128812 94.6758 266.9079 14.90384801 99194 CAS-2T & KS-1Q 1 41847U 16066G 26071.75484932 .00001557 00000+0 22572-3 0 9999 2 41847 98.3881 148.5710 0343561 62.2214 301.3364 14.44480000490871 RADFXSAT (FOX-1B) 1 43017U 17073E 26071.57536950 .00014489 00000+0 65446-3 0 9992 2 43017 97.4859 300.8129 0154357 301.9271 56.7024 15.10950627450795 DIWATA-2B 1 43678U 18084H 26071.99099230 .00005079 00000+0 41314-3 0 9992 2 43678 98.1041 264.1630 0012148 116.9049 243.3416 14.99984619401795 ES'HAIL 2 1 43700U 18090A 26071.79085058 .00000144 00000+0 00000+0 0 9997 2 43700 0.0173 145.4269 0001102 201.7102 133.8009 1.00271326 26717 FOX-1CLIFF (AO-95) 1 43770U 18099N 26071.72824332 .00012969 00000+0 52952-3 0 9997 2 43770 97.4509 132.4339 0008109 335.2955 24.7893 15.24502263398511 ITASAT 1 43786U 18099AE 26071.67550692 .00008290 00000+0 41330-3 0 9993 2 43786 97.4162 125.1435 0011941 335.6158 24.4509 15.17731810398263 JY1SAT (JO-97) 1 43803U 18099AX 26071.69409322 .00018439 00000+0 62819-3 0 9999 2 43803 97.4251 134.3706 0004884 243.5412 116.5328 15.30427657398856 UWE-4 1 43880U 18111E 26071.72879685 .00032422 00000+0 80616-3 0 9999 2 43880 97.5847 356.1269 0006905 327.7228 32.3594 15.40211697395906 TIANYAN 01 1 44881U 19093C 26071.98437681 .00000713 00000+0 86831-4 0 9999 2 44881 97.7604 146.5441 0014769 47.8632 312.3836 14.86349569337129 RS-44 & BREEZE-KM R/B 1 44909U 19096E 26071.99984865 .00000038 00000+0 10696-3 0 9990 2 44909 82.5208 43.6140 0217796 9.5953 350.9206 12.79747534290043 SALSAT 1 46495U 20068K 26071.94691407 .00010457 00000+0 38231-3 0 9996 2 46495 97.8863 69.2667 0008098 282.5650 77.4683 15.28257479300659 XW-3 (CAS-9) 1 50466U 21131B 26071.97522332 .00000495 00000+0 16700-3 0 9992 2 50466 98.4951 164.9110 0004752 41.3264 318.8283 14.41255588221257 GREENCUBE (IO-117) 1 53109U 22080E 26071.68971834 -.00000003 00000+0 00000+0 0 9994 2 53109 70.1611 331.8125 0008943 311.3288 48.6601 6.42583072 85868 UMKA 1 (RS40S) 1 57172U 23091G 26071.99622529 .00007147 00000+0 33746-3 0 9991 2 57172 97.5174 131.0891 0014684 95.7692 264.5217 15.19651140149397 CUBESX-HSE 3 (RS42S) 1 57178U 23091N 26071.96763459 .00015172 00000+0 54446-3 0 9999 2 57178 97.5204 136.4713 0012580 77.2370 283.0274 15.28713624149711 MONITOR-3 (RS58S) 1 57180U 23091Q 26071.99179303 .00013146 00000+0 51507-3 0 9998 2 57180 97.5199 134.8250 0013556 81.6756 278.6018 15.25828392149617 MONITOR-4 (RS57S) 1 57182U 23091S 26071.97673262 .00013341 00000+0 52127-3 0 9997 2 57182 97.5193 134.7749 0013568 82.1838 278.0940 15.25915821149617 MONITOR-2 (RS39S) 1 57184U 23091U 26071.96920002 .00006739 00000+0 33441-3 0 9996 2 57184 97.5198 130.8834 0013013 88.8879 271.3846 15.17959053149357 SVYATOBOR 1 (RS60S) 1 57187U 23091X 26071.98123663 .00011018 00000+0 44496-3 0 9997 2 57187 97.5205 135.3382 0011063 75.2802 284.9661 15.24889313149642 VIZARD-METEO (RS38S) 1 57189U 23091Z 26071.96205809 .00019081 00000+0 60178-3 0 9993 2 57189 97.5192 139.7044 0008611 62.4685 297.7431 15.32885450149930 NANOZOND 1 (RS49S) 1 57190U 23091AA 26068.04609972 .00257461 00000+0 17344-2 0 9991 2 57190 97.5065 148.2398 0000999 320.8834 39.2358 15.74384803150173 POLYTECH-UNIVERSE 3 (R*) 1 57191U 23091AB 26072.00880875 .00005985 00000+0 29533-3 0 9992 2 57191 97.5174 130.4297 0017436 103.6390 256.6786 15.18144430149350 UTMN 2 (RS27S) 1 57203U 23091AP 26071.97403441 .00014963 00000+0 52326-3 0 9993 2 57203 97.5194 137.9927 0009565 66.7686 293.4561 15.29592739149822 KUZGTU 1 (RS47S) 1 57217U 23091AV 26072.01138079 .00014555 00000+0 54079-3 0 9990 2 57217 97.5178 135.6263 0012801 79.6827 280.5854 15.27575745149686 SONATE-2 1 59112U 24043Q 26071.81970835 .00040320 00000+0 67775-3 0 9991 2 59112 97.5393 216.8998 0007908 193.1784 166.9263 15.51620954112911 MESAT1 1 60209U 24125G 26071.66275627 .00044918 00000+0 69426-3 0 9993 2 60209 97.2454 287.5396 0011444 209.5505 150.5103 15.53896136 94533 OOV-CUBE (TUBSAT-30) 1 60240U 24128F 26071.89106154 .00003968 00000+0 30550-3 0 9990 2 60240 61.9947 201.2306 0054220 112.9703 247.7121 15.02279620 91648 COLIBRI-S (RS67S) 1 61746U 24199M 26071.92599782 .00025686 00000+0 57114-3 0 9993 2 61746 97.3158 305.1038 0007501 270.6440 89.3949 15.43618199122548 HORS 3 (RS81S) 1 61753U 24199U 26071.94208366 .00034866 00000+0 65248-3 0 9995 2 61753 97.3128 306.2493 0005359 274.4425 85.6214 15.48616600122638 HORS 4 (RS82S) 1 61754U 24199V 26071.93945927 .00044069 00000+0 74467-3 0 9995 2 61754 97.3098 306.9566 0004966 270.6072 89.4612 15.51474563122685 HORIZON (RS59S) 1 61757U 24199Y 26071.93182740 .00149037 00000+0 11643-2 0 9991 2 61757 97.3061 310.8822 0003303 224.7077 135.3920 15.71189749122938 ARCTICSAT 1 (RS74S) 1 61762U 24199AD 26071.95427327 .00112120 00000+0 10676-2 0 9990 2 61762 97.3088 310.4050 0003672 228.7267 131.3678 15.66452135122905 SIT-2086 1 61764U 24199AF 26071.95461370 .00026665 00000+0 51375-3 0 9998 2 61764 97.3119 306.9889 0005911 257.9435 102.1153 15.47827015119521 HYPERVIEW 1G (RS66S) 1 61772U 24199AP 26071.96752646 .00071635 00000+0 93398-3 0 9995 2 61772 97.3083 308.1257 0006251 267.7121 92.3420 15.58458288119613 ALTAIR (RS65S) 1 61779U 24199AW 26071.96097953 .00009386 00000+0 27766-3 0 9995 2 61779 97.3182 301.9950 0011861 295.1775 64.8238 15.35055654122344 ASRTU-1 (AO-123) 1 61781U 24199AY 26071.94258951 .00010051 00000+0 30581-3 0 9993 2 61781 97.3155 301.4982 0012606 297.3853 62.6107 15.34135298119165 TUSUR GO (RS78S) 1 61782U 24199AZ 26071.94342489 .00171604 00000+0 12978-2 0 9995 2 61782 97.3017 309.9055 0003557 249.1396 110.9486 15.71898954119735 SAMSAT-IONOSPHERE (RS7*) 1 61784U 24199BB 26071.96380623 .00039279 00000+0 70350-3 0 9991 2 61784 97.3118 306.0692 0008456 278.6934 81.3359 15.49824684122628 RTU MIREA 1 (RS51S) 1 61785U 24199BC 26071.95762609 .00045835 00000+0 76494-3 0 9999 2 61785 97.3117 306.5172 0008308 273.8721 86.1581 15.51790889119508 TEVEL2-4 1 63213U 25052D 26071.70069661 .00021009 00000+0 70127-3 0 9991 2 63213 97.4016 328.1232 0004792 87.6329 272.5460 15.31063663 55338 TEVEL2-5 1 63214U 25052E 26071.64652685 .00020612 00000+0 69080-3 0 9994 2 63214 97.4014 328.0409 0004756 90.1067 270.0719 15.30936720 55321 TEVEL2-6 1 63215U 25052F 26071.65643196 .00021722 00000+0 72864-3 0 9990 2 63215 97.4016 328.0367 0004859 90.3008 269.8790 15.30896934 55325 TEVEL2-1 1 63217U 25052H 26071.65549193 .00020565 00000+0 69915-3 0 9991 2 63217 97.3990 327.7649 0004828 99.2965 260.8822 15.30473039 55315 TEVEL2-3 1 63218U 25052J 26071.65300071 .00020987 00000+0 71257-3 0 9992 2 63218 97.3991 327.7743 0004909 99.3774 260.8023 15.30510578 55314 TEVEL2-2 1 63219U 25052K 26071.65614720 .00020729 00000+0 70464-3 0 9995 2 63219 97.3989 327.7668 0004811 100.3144 259.8639 15.30475266 55319 TEVEL2-9 1 63237U 25052AD 26071.64787713 .00019147 00000+0 68604-3 0 9992 2 63237 97.4057 327.3223 0008172 115.8360 244.3724 15.28754273 55267 TEVEL2-7 1 63238U 25052AE 26071.93445953 .00018169 00000+0 65537-3 0 9997 2 63238 97.4055 327.5590 0008314 115.4253 244.7848 15.28543909 55308 TEVEL2-8 1 63239U 25052AF 26071.67966764 .00018175 00000+0 65622-3 0 9999 2 63239 97.4055 327.2862 0008274 116.8914 243.3173 15.28512652 55264 HADES-ICM 1 63492U 25052BN 26071.65340648 .00144463 00000+0 19096-2 0 9998 2 63492 97.3940 332.2098 0009178 105.5033 254.7237 15.57805361 55604 INNOSAT 16 (RS92S7) 1 64878U 25155C 26071.99911462 .00008119 00000+0 33509-3 0 9999 2 64878 97.4464 39.5752 0011409 154.5754 205.6046 15.24239320 66013 GEOSCAN 6 (RS92S6) 1 64879U 25155D 26071.98940200 .00013928 00000+0 51050-3 0 9996 2 64879 97.4462 40.3683 0009132 144.5142 215.6706 15.28072457 66064 GEOSCAN 1 (RS92S1) 1 64880U 25155E 26071.95879923 .00012873 00000+0 46598-3 0 9997 2 64880 97.4461 40.4135 0009096 144.5058 215.6788 15.28500460 66063 239ALFEROV (RS61S) 1 64881U 25155F 26071.98122120 .00018447 00000+0 63531-3 0 9990 2 64881 97.4466 40.7175 0008833 142.5467 217.6391 15.30051261 66083 GEOSCAN 2 (RS92S2) 1 64890U 25155Q 26071.97051316 .00014178 00000+0 50822-3 0 9993 2 64890 97.4461 40.5371 0008867 132.4408 227.7583 15.28801643 66072 GEOSCAN 5 (RS92S5) 1 64891U 25155R 26071.99066880 .00018637 00000+0 63547-3 0 9990 2 64891 97.4458 40.8265 0007462 145.5305 214.6421 15.30383229 66091 GEOSCAN 4 (RS92S4) 1 64892U 25155S 26071.98282597 .00018596 00000+0 63205-3 0 9990 2 64892 97.4461 40.8439 0007496 145.8911 214.2812 15.30487902 66095 GEOSCAN 3 (RS92S3) 1 64893U 25155T 26071.95790230 .00021785 00000+0 70948-3 0 9992 2 64893 97.4453 41.0160 0007233 145.6823 214.4887 15.31837583 66101 INNOSAT 3 (RS92S0) 1 64894U 25155U 26071.98005627 .00038209 00000+0 10544-2 0 9999 2 64894 97.4424 41.7117 0007091 139.3895 220.7880 15.36963071 66155